默认 日期 大小 文件数 浏览量 最新下载 xml
nks-磁力链接相关资源由用户搜索指令自动获取,结果来源于网络,本站不存储任何资料,亦不承担任何责任,请于24小时内删除,搜索到96个磁力,用时0ms。
    {"CinematicKS.part01.rar": 1000341504, "CinematicKS.part02.rar": 1000341504, "CinematicKS.part03.rar": 1000341504, "CinematicKS.part04.rar": 1000341504, "CinematicKS.part05.rar": 1000341504, "CinematicKS.part06.rar": 1000341504, "CinematicKS.part07.rar": ...
创建时间: 2018-12-21 21:52:55 大小:7.42 GB 文件数量:9 热度:10 最近下载:2025-02-26 06:31:01
    {"VR.nfo": 136, "RPCX Rob Papen BLUE 2 v1.0.3b CE.exe": 110395495, "RPCX Rob Papen BLUE 2 v1.0.3b NKS CE.exe": 1102618742}
创建时间: 2018-12-22 01:37:41 大小:1.13 GB 文件数量:3 热度:5 最近下载:2024-10-28 12:57:02
    ... 10bit AC3) [480DE188].mkv": 720822182, "[nks] Gundam AGE - 16 (BD 1280x720 ... 10bit AC3) [034CBCF6].mkv": 434716681, "[nks] Gundam AGE - 17 (BD 1280x720 ... 10bit AC3) [546DF3DF].mkv": 498988687, "[nks] Gundam AGE - 18 (BD 1280x720 ...
创建时间: 2018-12-22 02:52:48 大小:1.92 GB 文件数量:4 热度:6 最近下载:2024-12-25 16:54:02
    {"[nks] Captain Earth - 09 (BD 1280x720 10bit AC3) [D11E4541].mkv": 325196358, "[nks] Captain Earth - 10 (BD 1280x720 10bit AC3) [EA340BBE].mkv": 400875127, "[nks] Captain Earth - 11 (BD 1280x720 10bit AC3) [2C3A4CD4].mkv": 318419983}
创建时间: 2018-12-22 23:48:33 大小:996.1 MB 文件数量:3 热度:6 最近下载:2022-04-23 06:21:59
    {"VR.nfo": 137, "About.txt": 1749, "RPCX Rob Papen RAW v1.0.4a CE.exe": 33940488, "RPCX Rob Papen RAW v1.0.4a NKS CE.exe": 804867145}
创建时间: 2018-12-22 23:57:04 大小:799.95 MB 文件数量:4 热度:6 最近下载:2025-02-23 17:31:01
    ... AC3) [30C71470].mkv": 436180953, "[nks] Captain Earth - 02 (BD ... AC3) [011EF9ED].mkv": 408900396, "[nks] Captain Earth - 03 (BD ... AC3) [D64343E0].mkv": 430680057, "[nks] Captain Earth - NCED1 (BD ... AC3) [8AC2770E].mkv": 35138413, "[nks] Captain Earth - NCOP1 (BD ...
创建时间: 2018-12-23 17:40:04 大小:1.27 GB 文件数量:5 热度:5 最近下载:2021-06-17 16:24:50
    {"[nks] Captain Earth - 04 (BD 1280x720 10bit AC3) [D5C5C7AA].mkv": 388710856, "[nks] Captain Earth - 05 (BD 1280x720 10bit AC3) [EF3EFAE4].mkv": 294733284, "[nks] Captain Earth - 06 (BD 1280x720 10bit AC3) [DFE8830C].mkv": 384974632}
创建时间: 2018-12-23 22:02:34 大小:1018.92 MB 文件数量:3 热度:7 最近下载:2024-12-08 16:41:03
    ... FLAC) [8945DDE0].mkv": 1073436981, "[nks] Captain Earth - 02 (BD ... ) [6B23393A].mkv": 1023997364, "[nks] Captain Earth - 03 (BD ... FLAC) [CD2190F2].mkv": 1077713405, "[nks] Captain Earth - NCED1 (BD ... FLAC) [EB73E84B].mkv": 81233134, "[nks] Captain Earth - NCOP1 (BD ...
创建时间: 2018-12-24 09:03:06 大小:3.14 GB 文件数量:5 热度:9 最近下载:2025-03-23 01:50:02
    {"[nks] Captain Earth - 17 (BD 1280x720 10bit AC3) [7757FDDC].mkv": 459972059, "[nks] Captain Earth - 18 (BD 1280x720 10bit AC3) [96F2487C].mkv": 384477658, "[nks] Captain Earth - 19 (BD 1280x720 10bit AC3) [FF8B9BC0].mkv": 365603500}
创建时间: 2018-12-24 13:46:11 大小:1.13 GB 文件数量:3 热度:7 最近下载:2023-04-14 05:20:08
    {"[nks] Captain Earth - 17 (BD 1920x1080 10bit FLAC) [297B53B6].mkv": 1119113809, "[nks] Captain Earth - 18 (BD 1920x1080 10bit FLAC) [A42822B1].mkv": 999727871, "[nks] Captain Earth - 19 (BD 1920x1080 10bit FLAC) [DCAD4897].mkv": 927019871}
创建时间: 2018-12-24 15:30:32 大小:2.84 GB 文件数量:3 热度:8 最近下载:2023-04-14 06:50:05
    {"[nks] Captain Earth - 15 (BD 1280x720 10bit AC3) [A6C66128].mkv": 365821224, "[nks] Captain Earth - 16 (BD 1280x720 10bit AC3) [F8B826CF].mkv": 398789662}
创建时间: 2018-12-24 16:15:36 大小:729.19 MB 文件数量:2 热度:8 最近下载:2023-04-14 07:40:04
    ... ) [CDD54C1F].mkv": 872793392, "[nks] Captain Earth - 24 (BD ... FLAC) [5ACA6008].mkv": 1390121213, "[nks] Captain Earth - 25 (BD ... FLAC) [43FB918C].mkv": 1242418280, "[nks] Captain Earth - NCED2 (BD ... FLAC) [EC36A48F].mkv": 142805318, "[nks] Captain Earth - NCOP2 (BD ...
创建时间: 2018-12-24 22:42:55 大小:3.49 GB 文件数量:5 热度:9 最近下载:2025-04-02 15:50:02
    ... FLAC) [43FB918C].mkv": 1242418280, "[nks] Captain Earth - NCED1 (BD ... ) [EB73E84B].mkv": 81233134, "[nks] Captain Earth - NCED2 (BD ... FLAC) [EC36A48F].mkv": 142805318, "[nks] Captain Earth - NCOP1 (BD ... ) [74DEDC17].mkv": 110129217, "[nks] Captain Earth - NCOP2 (BD ...
创建时间: 2018-12-25 00:39:15 大小:23.35 GB 文件数量:31 热度:7 最近下载:2023-04-15 03:00:19
    {"Samples": {"toll.nkr": 7216641, "Toll_.nkx": 1455459957}, "Toll.nicnt": 805874, "Instruments": {"Toll.nki": 46444, ".previews": {"Toll.nki.ogg": 198947}}, "Documentation": {"3.SUPPORT": {"Support - Sonokinetic Support Portal.webloc": 96, "Sonokinetic - ...
创建时间: 2018-12-25 08:38:33 大小:1.38 GB 文件数量:13 热度:8 最近下载:2023-04-15 09:20:05
    {"[nks] Captain Earth - 12 (BD 1280x720 10bit AC3) [A2ABFFFA].mkv": 294023769, "[nks] Captain Earth - 13 (BD 1280x720 10bit AC3) [1E9A09E2].mkv": 295009435, "[nks] Captain Earth - 14 (BD 1280x720 10bit AC3) [E0AF6DE7].mkv": 344748567}
创建时间: 2018-12-25 14:25:58 大小:890.52 MB 文件数量:3 热度:9 最近下载:2025-03-31 23:02:02
    ... AC3) [91B2DA04].mkv": 520057462, "[nks] Captain Earth - NCED1 (BD ... AC3) [8AC2770E].mkv": 35138413, "[nks] Captain Earth - NCED2 (BD ... AC3) [7C2A461E].mkv": 70782822, "[nks] Captain Earth - NCOP1 (BD ... ) [9E3B8A9F].mkv": 51426415, "[nks] Captain Earth - NCOP2 (BD ...
创建时间: 2018-12-27 05:58:39 大小:9.13 GB 文件数量:31 热度:8 最近下载:2025-04-10 01:42:01
    {"About.txt": 2100, "RPCX.Rob.Papen.BLUE.II.v1.0.3b.NKS.CE.rar": 1114333854}
创建时间: 2018-12-27 16:58:08 大小:1.04 GB 文件数量:2 热度:8 最近下载:2025-07-20 07:42:01
    {"[nks] Captain Earth - 09 (BD 1920x1080 10bit FLAC) [199E33AA].mkv": 890835161, "[nks] Captain Earth - 10 (BD 1920x1080 10bit FLAC) [9A6F218A].mkv": 1031192628, "[nks] Captain Earth - 11 (BD 1920x1080 10bit FLAC) [0145ABD5].mkv": 882456782}
创建时间: 2018-12-28 20:32:54 大小:2.61 GB 文件数量:3 热度:5 最近下载:2023-04-18 08:30:03
    {"[nks] Captain Earth - 20 (BD 1920x1080 10bit FLAC) [E63CD1E8].mkv": 896656720, "[nks] Captain Earth - 21 (BD 1920x1080 10bit FLAC) [090CE4A4].mkv": 948161417, "[nks] Captain Earth - 22 (BD 1920x1080 10bit FLAC) [4D6987DB].mkv": 1025867611}
创建时间: 2018-12-28 20:58:21 大小:2.67 GB 文件数量:3 热度:7 最近下载:2025-03-29 01:46:01
    {"[nks] Captain Earth - 15 (BD 1920x1080 10bit FLAC) [235F3BE9].mkv": 953297624, "[nks] Captain Earth - 16 (BD 1920x1080 10bit FLAC) [C48F0173].mkv": 1015809542}
创建时间: 2018-12-28 23:00:50 大小:1.83 GB 文件数量:2 热度:6 最近下载:2025-05-29 18:58:02